Terminal Aerodrome Forecast
Issued by NWS

Home | Current Version | Previous Version | Graphics & Text | Print | Product List | Glossary On
Versions: 1 2 3 4 5 6 7 8 9 10 11 12 13 14 15 16 17 18 19 20 21
000
FTUS43 KBIS 231400 AAA
TAFDIK
TAF AMD
KDIK 231405Z 2314/2412 16015G25KT P6SM VCSH BKN100
     FM231800 14016KT P6SM VCSH BKN070 OVC100
     FM240000 11008KT P6SM SCT060=

USA.gov is the U.S. government's official web portal to all federal, state and local government web resources and services.